TIANLIAN 2-02

Last updated on Wed Sep 17 2025 00:02:51 GMT+0000 (Coordinated Universal Time)

1 50005U 21124A 25259.61761882 -.00000034 00000+0 00000+0 0 9998 2 50005 0.0913 101.5600 0003913 129.2487 158.2828 1.00270996 13874
UTC large
Height (km)
Speed (km/s)
/
Latitude / Longitude
Inclination (degrees)
Orbital Period (minutes)
Azimuth
Elevation
Range (km)
Doppler Factor

Next 0 passes for location: London (51.5072 / 0.1276)

Sorry there are no passes over London.